Weather History for Hayward, WI

Change the Weather History Date:

Tuesday, May 14, 2013

  Actual Average Record
Temperature  
Mean Temperature 58 °F -  
Max Temperature 84 °F 72 °F 91 °F (2007)
Min Temperature 33 °F 43 °F 28 °F (2004)
Degree Days  
Heating Degree Days 6    
Growing Degree Days 8 (Base 50)    
Moisture  
Dew Point 39 °F    
Average Humidity 44    
Maximum Humidity 85    
Minimum Humidity 22    
Precipitation  
Precipitation 0.00 in - - ()
Sea Level Pressure  
Sea Level Pressure 29.62 in    
Wind  
Wind Speed 5 mph (SSW)    
Max Wind Speed 18 mph    
Max Gust Speed 26 mph    
Visibility 10 miles    
Events      
Averages and records for this station are not official NWS values.
T = Trace of Precipitation, MM = Missing Value Source: NWS Daily Summary

Daily Weather History Graph

Daily Weather History Graph

Search for Another Location

Airport:

Trip Planner

Search our weather history database for the weather conditions in past years. The results will help you decide how hot, cold, wet, or windy it might be!

Date:

Astronomy

May. 14, 2013 Rise Set
Actual Time 5:34 AM CDT 8:30 PM CDT
Civil Twilight 4:59 AM CDT 9:05 PM CDT
Nautical Twilight 4:14 AM CDT 9:50 PM CDT
Astronomical Twilight 3:21 AM CDT 10:44 PM CDT
Moon 9:14 AM CDT (5/14) No Moon Set
Length of Visible Light 16h 06m
Length of Day
14h 56m
Waxing Crescent, 19% of the Moon is Illuminated
May 14
Waxing Crescent
May 17
First Quarter
May 24
Full
May 31
Last Quarter
Jun 8
New

Hourly Weather History & Observations

Time (CDT) Temp. Dew Point Humidity Pressure Visibility Wind Dir Wind Speed Gust Speed Precip Events Conditions
12:53 AM 54.0 °F 34.0 °F 47% 29.70 in 10.0 mi South 4.6 mph - N/A   Clear
1:53 AM 48.9 °F 34.0 °F 56% 29.69 in 10.0 mi Calm Calm - N/A   Clear
2:53 AM 44.1 °F 34.0 °F 68% 29.69 in 10.0 mi Calm Calm - N/A   Clear
3:53 AM 37.9 °F 32.0 °F 79% 29.70 in 10.0 mi Calm Calm - N/A   Clear
4:53 AM 33.1 °F 28.9 °F 85% 29.71 in 10.0 mi Calm Calm - N/A   Clear
5:53 AM 34.0 °F 30.0 °F 85% 29.71 in 10.0 mi Calm Calm - N/A   Clear
6:53 AM 42.1 °F 35.1 °F 76% 29.70 in 10.0 mi Calm Calm - N/A   Clear
7:53 AM 55.0 °F 39.0 °F 55% 29.68 in 10.0 mi Calm Calm - N/A   Clear
8:53 AM 62.1 °F 41.0 °F 46% 29.69 in 10.0 mi NE 3.5 mph - N/A   Clear
9:53 AM 60.1 °F 41.0 °F 49% 29.73 in 10.0 mi Calm Calm - N/A   Mostly Cloudy
10:53 AM 63.0 °F 43.0 °F 48% 29.80 in 10.0 mi Variable 3.5 mph - 0.00 in   Overcast
11:53 AM 68.0 °F 44.1 °F 42% 29.73 in 10.0 mi ESE 8.1 mph - 0.00 in   Scattered Clouds
12:53 PM 75.0 °F 43.0 °F 32% 29.64 in 10.0 mi ESE 11.5 mph 17.3 mph N/A   Clear
1:53 PM 79.0 °F 37.9 °F 23% 29.57 in 10.0 mi South 18.4 mph 24.2 mph N/A   Clear
2:53 PM 82.0 °F 39.9 °F 22% 29.55 in 10.0 mi South 15.0 mph 24.2 mph N/A   Clear
3:53 PM 82.9 °F 42.1 °F 24% 29.52 in 10.0 mi SSW 13.8 mph 26.5 mph N/A   Clear
4:53 PM 84.0 °F 44.1 °F 25% 29.51 in 10.0 mi SSW 9.2 mph 19.6 mph N/A   Clear
5:53 PM 84.0 °F 44.1 °F 25% 29.49 in 10.0 mi SSW 11.5 mph 23.0 mph N/A   Clear
6:53 PM 84.9 °F 46.0 °F 26% 29.43 in 10.0 mi South 11.5 mph 17.3 mph N/A   Clear
7:53 PM 82.0 °F 46.9 °F 29% 29.42 in 10.0 mi Variable 5.8 mph - N/A   Clear
8:53 PM 81.0 °F 42.1 °F 25% 29.46 in 10.0 mi WNW 11.5 mph 20.7 mph N/A   Clear
9:53 PM 75.0 °F 33.1 °F 22% 29.53 in 10.0 mi WNW 9.2 mph - N/A   Scattered Clouds
10:53 PM 71.1 °F 37.0 °F 29% 29.55 in 9.0 mi WNW 6.9 mph - N/A   Clear
11:53 PM 68.0 °F 43.0 °F 40% 29.58 in 10.0 mi Variable 6.9 mph 21.9 mph N/A   Clear